G7GFU-13 Weather Reports


time (UTC)temp
C
wind
direction
speed
KPH
gust
KPH
rain 1hr
cm
rain 24hr
cm
rain mn
cm
humidity
%
barometer
mb
20260505200003 10 25 3.2 12.9 0.00 0.00 0.00 73 1015.3
20260505195403 10 58 3.2 9.7 0.00 0.00 0.00 72 1015.2
20260505194503 10 12 4.8 12.9 0.00 0.00 0.00 72 1015.1
20260505193603 10 9 4.8 11.3 0.00 0.00 0.00 72 1015.0
20260505192916 10 27 3.2 12.9 0.00 0.00 0.00 72 1014.9
20260505191803 10 359 3.2 9.7 0.00 0.00 0.00 73 1014.9
20260505191117 10 4 3.2 6.4 0.00 0.00 0.00 72 1014.8
20260505190216 10 336 3.2 8.0 0.00 0.00 0.00 71 1014.8
20260505185403 11 340 4.8 11.3 0.00 0.00 0.00 70 1014.8
20260505184503 11 325 4.8 6.4 0.00 0.00 0.00 71 1014.8
20260505183603 11 322 3.2 6.4 0.00 0.00 0.00 70 1014.8
20260505182703 11 315 4.8 19.3 0.00 0.00 0.00 69 1014.7
20260505181803 11 324 4.8 12.9 0.00 0.00 0.00 67 1014.7
20260505180903 11 313 4.8 14.5 0.00 0.00 0.00 67 1014.7
20260505180003 11 309 3.2 11.3 0.00 0.00 0.00 67 1014.7
20260505175403 12 323 3.2 8.0 0.00 0.00 0.00 66 1014.7
20260505174503 12 321 4.8 9.7 0.00 0.00 0.00 65 1014.7
20260505173816 12 326 4.8 11.3 0.00 0.00 0.00 66 1014.7
20260505172703 12 311 3.2 12.9 0.00 0.00 0.00 65 1014.7
20260505171803 12 326 1.6 11.3 0.00 0.00 0.00 67 1014.7
20260505170903 12 316 3.2 11.3 0.00 0.00 0.00 67 1014.7
20260505170003 12 311 3.2 6.4 0.00 0.00 0.00 67 1014.7
20260505165403 12 315 3.2 6.4 0.00 0.00 0.00 67 1014.7
20260505164503 12 316 3.2 11.3 0.00 0.00 0.00 64 1014.6
20260505163603 13 313 3.2 11.3 0.00 0.00 0.00 64 1014.6
20260505162703 13 311 3.2 8.0 0.00 0.00 0.00 62 1014.6
20260505161803 13 316 3.2 11.3 0.00 0.00 0.00 62 1014.6
20260505160903 13 314 3.2 11.3 0.00 0.00 0.00 62 1014.6
20260505152703 13 324 3.2 4.8 0.00 0.00 0.00 61 1014.7
20260505151803 13 310 3.2 8.0 0.00 0.00 0.00 61 1014.7
20260505150903 13 317 1.6 6.4 0.00 0.00 0.00 61 1014.8
20260505140216 12 319 3.2 9.7 0.00 0.00 0.00 64 1014.8
20260505124503 11 341 4.8 11.3 0.00 0.00 0.00 72 1015.0
20260505123816 11 318 4.8 9.7 0.00 0.00 0.00 72 1015.0
20260505122703 12 327 3.2 6.4 0.00 0.00 0.00 72 1015.0
20260505121803 11 309 3.2 9.7 0.00 0.00 0.00 74 1015.0
20260505120903 11 317 3.2 9.7 0.00 0.00 0.00 74 1015.1
20260505120003 11 349 3.2 6.4 0.00 0.00 0.00 78 1015.1
20260505115403 11 346 3.2 9.7 0.00 0.00 0.00 77 1015.2
20260505114503 10 347 3.2 8.0 0.00 0.00 0.00 79 1015.3
20260505113603 10 360 4.8 6.4 0.00 0.00 0.00 80 1015.3
20260505112703 10 331 6.4 14.5 0.00 0.00 0.00 77 1015.3
20260505111803 11 347 6.4 17.7 0.00 0.00 0.00 73 1015.2
20260505110903 12 326 6.4 12.9 0.00 0.00 0.00 66 1015.1
20260505110217 13 349 4.8 9.7 0.00 0.00 0.00 62 1015.1
20260505101803 10 357 3.2 11.3 0.00 0.00 0.00 77 1015.4
20260505100903 10 320 3.2 9.7 0.00 0.00 0.00 79 1015.4
20260505100003 10 315 4.8 14.5 0.00 0.00 0.00 78 1015.3
20260505095403 11 315 3.2 11.3 0.00 0.00 0.00 72 1015.3
20260505094718 11 323 3.2 9.7 0.00 0.00 0.00 70 1015.3
20260505093603 12 354 3.2 4.8 0.00 0.00 0.00 69 1015.3
20260505092703 11 314 4.8 12.9 0.00 0.00 0.00 70 1015.3
20260505091803 11 319 4.8 9.7 0.00 0.00 0.00 72 1015.3
20260505090903 11 346 4.8 11.3 0.00 0.00 0.00 72 1015.3
20260505090003 11 349 3.2 8.0 0.00 0.00 0.00 75 1015.4
20260505085403 11 341 3.2 6.4 0.00 0.00 0.00 80 1015.4
20260505084503 10 343 4.8 9.7 0.00 0.00 0.00 82 1015.4
20260505083603 10 323 4.8 14.5 0.00 0.00 0.00 80 1015.5
20260505082703 11 329 4.8 9.7 0.00 0.00 0.00 77 1015.4
20260505081803 12 336 3.2 6.4 0.00 0.00 0.00 78 1015.5
20260505081117 11 338 3.2 8.0 0.00 0.00 0.00 80 1015.5
20260505080003 11 337 1.6 8.0 0.00 0.00 0.00 81 1015.5
20260505075403 10 321 1.6 9.7 0.00 0.00 0.00 82 1015.5
20260505074503 10 318 1.6 6.4 0.00 0.00 0.00 83 1015.5
20260505073603 10 349 0.0 3.2 0.00 0.00 0.00 84 1015.5
20260505072703 10 349 0.0 1.6 0.00 0.00 0.00 84 1015.5
20260505071803 9 349 0.0 3.2 0.00 0.00 0.00 83 1015.5
20260505070903 9 357 1.6 4.8 0.00 0.00 0.00 83 1015.5
20260505070003 9 334 1.6 6.4 0.00 0.00 0.00 82 1015.5
20260505065403 9 360 1.6 4.8 0.00 0.00 0.00 82 1015.6
20260505064503 9 360 1.6 4.8 0.00 0.00 0.00 82 1015.7
20260505063603 9 360 1.6 4.8 0.00 0.00 0.00 82 1015.6
20260505062703 9 360 1.6 1.6 0.00 0.00 0.00 83 1015.7
20260505061803 8 320 1.6 4.8 0.00 0.00 0.00 83 1015.6
20260505060903 8 306 0.0 1.6 0.00 0.00 0.00 84 1015.6
20260505060003 8 0 0.0 0.0 0.00 0.00 0.00 85 1015.5
20260505055617 8 0 0.0 0.0 0.00 0.00 0.00 85 1015.5
20260505054503 8 306 0.0 3.2 0.00 0.00 0.00 85 1015.4
20260505053603 8 306 0.0 3.2 0.00 0.00 0.00 88 1015.4
20260505052703 6 0 0.0 3.2 0.00 0.00 0.00 90 1015.4
20260505052016 6 306 0.0 1.6 0.00 0.00 0.00 91 1015.3
20260505050903 6 0 0.0 3.2 0.00 0.00 0.00 91 1015.3
20260505050217 6 306 0.0 1.6 0.00 0.00 0.00 91 1015.2
20260505040904 6 312 0.0 4.8 0.00 0.00 0.00 92 1015.1
20260505040003 6 316 0.0 1.6 0.00 0.00 0.00 92 1015.1
20260505035403 6 316 0.0 3.2 0.00 0.00 0.00 92 1015.1
20260505034718 6 320 0.0 4.8 0.00 0.00 0.00 92 1015.1
20260505033817 6 0 0.0 3.2 0.00 0.00 0.00 92 1015.1
20260505032703 6 320 0.0 1.6 0.00 0.00 0.00 92 1015.2
20260505031803 6 320 0.0 1.6 0.00 0.00 0.00 92 1015.2
20260505030903 7 320 0.0 3.2 0.00 0.00 0.00 92 1015.2
20260505030003 7 308 1.6 3.2 0.00 0.00 0.00 92 1015.3
20260505025403 7 320 0.0 4.8 0.00 0.00 0.00 92 1015.3
20260505024503 7 323 0.0 3.2 0.00 0.00 0.00 92 1015.4
20260505023603 7 0 0.0 1.6 0.00 0.00 0.00 92 1015.4
20260505022703 6 0 0.0 0.0 0.00 0.00 0.00 92 1015.4
20260505021803 7 0 0.0 0.0 0.00 0.00 0.00 91 1015.4
20260505020903 7 0 0.0 1.6 0.00 0.00 0.00 91 1015.4
20260505020003 7 323 0.0 3.2 0.00 0.00 0.00 90 1015.5
20260505015404 7 324 0.0 4.8 0.00 0.00 0.00 90 1015.5
20260505014503 7 325 0.0 4.8 0.00 0.00 0.00 89 1015.5
20260505013603 8 317 3.2 4.8 0.00 0.00 0.00 88 1015.6
20260505012703 8 305 1.6 6.4 0.00 0.00 0.00 88 1015.7
20260505011803 8 316 1.6 6.4 0.00 0.00 0.00 87 1015.7
20260505011116 8 321 1.6 6.4 0.00 0.00 0.00 88 1015.7
20260505010003 7 305 0.0 6.4 0.00 0.00 0.00 89 1015.8
20260505005403 7 302 0.0 4.8 0.00 0.00 0.00 90 1015.9
20260505004503 7 0 0.0 4.8 0.00 0.00 0.00 90 1015.9
20260505003603 7 0 0.0 0.0 0.00 0.00 0.00 89 1016.0
20260505002703 8 0 0.0 0.0 0.00 0.00 0.00 88 1016.0
20260505001803 8 320 0.0 3.2 0.00 0.00 0.00 88 1016.0
20260505000903 8 319 1.6 3.2 0.00 0.00 0.00 88 1016.0
20260505000218 8 317 1.6 4.8 0.00 0.00 0.00 89 1016.1
20260504235403 8 317 1.6 6.4 0.00 0.00 0.00 89 1016.1
20260504234503 8 324 1.6 6.4 0.00 0.00 0.00 89 1016.1
20260504233603 8 319 1.6 8.0 0.00 0.00 0.00 89 1016.1
20260504232703 8 327 1.6 4.8 0.00 0.00 0.00 89 1016.1
20260504232018 8 312 1.6 9.7 0.00 0.00 0.00 88 1016.1
20260504230903 8 317 1.6 4.8 0.00 0.00 0.00 86 1016.1
20260504230217 8 316 1.6 6.4 0.00 0.00 0.00 85 1016.2
20260504225403 8 314 1.6 6.4 0.00 0.00 0.00 85 1016.2
20260504224718 8 321 1.6 9.7 0.00 0.00 0.00 85 1016.2
20260504223817 8 310 1.6 6.4 0.00 0.00 0.00 84 1016.3
20260504222703 8 319 1.6 4.8 0.00 0.00 0.00 84 1016.4
20260504221803 8 317 0.0 4.8 0.00 0.00 0.00 83 1016.5
20260504220903 8 0 0.0 1.6 0.00 0.00 0.00 84 1016.5
20260504220003 8 315 0.0 3.2 0.00 0.00 0.00 84 1016.5
20260504215403 8 313 0.0 3.2 0.00 0.00 0.00 84 1016.5
20260504214717 8 313 0.0 3.2 0.00 0.00 0.00 84 1016.5
20260504213817 8 313 0.0 3.2 0.00 0.00 0.00 83 1016.5
20260504212703 8 313 1.6 3.2 0.00 0.00 0.00 82 1016.5
20260504211803 8 326 1.6 4.8 0.00 0.00 0.00 81 1016.5
20260504210903 8 328 0.0 4.8 0.00 0.00 0.00 81 1016.5
20260504210003 9 328 1.6 4.8 0.00 0.00 0.00 80 1016.5
20260504205403 9 327 1.6 3.2 0.00 0.00 0.00 80 1016.5
20260504204503 9 319 1.6 6.4 0.00 0.00 0.00 79 1016.4
20260504203603 9 319 3.2 6.4 0.00 0.00 0.00 79 1016.3
20260504202703 9 324 3.2 6.4 0.00 0.00 0.00 78 1016.3
20260504201803 9 312 3.2 11.3 0.00 0.00 0.00 78 1016.3
20260504201116 10 308 3.2 8.0 0.00 0.00 0.00 79 1016.2